Comodoro Rivadavia, Argentina

11:56 AM America en Mayo 20, 2018 (GMT +0000)
GEN. Enrique Mosconi International

Tiempo Historia de SAVC - Mayo, 2018

Change the Weather History Date:

Jueves, Mayo 17, 2018

  Actual Average Record
Temperature  
Temperatura media 41 ° F -  
Temperatura máxima 46 ° F 54 ° F 66 ° F (2011)
Temperatura mínima 36 ° F 40 ° F 32 ° F (2000)
Degree Days  
Grados día de calefacción 24    
Moisture  
Punto de rocío 41 ° F    
Average Humidity 90    
Maximum Humidity 100    
Minimum Humidity 77    
Precipitación  
Precipitación 0.35 pul 0.04 pul - ()
Presión al nivel del mar  
Presión al nivel del mar 29.97 pul    
Viento  
Velocidad del viento 1 mph ()    
Velocidad máxima del viento 9 mph    
Max Gust Speed -    
Visibilidad 5.6 Millas    
Eventos Lluvia    
Averages and records for this station are not official NWS values.
T = Trace of Precipitation, MM = Missing Value Source: Averaged Metar Reports

Daily Weather History Graph

Daily Weather History Graph

Search for Another Location

Airport or City:

Astronomía

May. 17, 2018 Salida Puesta
Hora real 8:45 AM -03 6:06 PM -03
Crepúsculo civil 8:13 AM -03 6:39 PM -03
Crepúsculo náutico 7:36 AM -03 7:15 PM -03
Crepúsculo astronómico 7:01 AM -03 7:50 PM -03
Luna 10:57 AM -03 (5/17) 8:21 PM -03 (5/17)
Horas de luz 10h 26m
Horas de luz
9h 20m
Creciente, 6% of the Moon is Illuminated
May 17
Creciente
May 22
Cuarto creciente
May 29
Luna llena
Jun 6
Cuarto menguante
Jun 13
Nueva

Hourly Weather History & Observations

Hora (-03) Temp. Vientos helados Punto de rocío Humedad Presión Visibilidad Wind Dir Velocidad del viento Velocidad de ráfagas Precip Eventos Condiciones
12:00 AM 40 ° F - 37 ° F 87% 30.06 pul 19 mi Sin viento Sin viento - -   Parcialmente nublado
12:00 AM 41.0 ° F - 37.4 ° F 87% 30.06 pul 6.2 mi Sin viento Sin viento - N/A   Nubes dispersas
1:00 AM 39.2 ° F - 37.4 ° F 93% 30.06 pul 6.2 mi Sin viento Sin viento - N/A   Parcialmente nublado
2:00 AM 37.4 ° F - 35.6 ° F 93% 30.06 pul - Oeste 2.3 mph - N/A   Despejado
3:00 AM 40 ° F - 36 ° F 82% 30.01 pul 19 mi Oeste 4.6 mph - -   Muy nublado
3:00 AM 39.2 ° F 35.9 ° F 35.6 ° F 87% 30.04 pul 6.2 mi Oeste 4.6 mph - N/A   Nubes dispersas
4:00 AM 39.2 ° F - 37.4 ° F 93% 30.04 pul 6.2 mi Sin viento Sin viento - N/A   Nubes dispersas
5:00 AM 39.2 ° F - 35.6 ° F 87% 30.01 pul 6.2 mi Oeste 2.3 mph - N/A   Nubes dispersas
6:00 AM 39 ° F - 36 ° F 83% 29.98 pul 19 mi Sin viento Sin viento - -   Parcialmente nublado
6:00 AM 39.2 ° F - 35.6 ° F 87% 30.01 pul 6.2 mi Sin viento Sin viento - N/A   Nubes dispersas
7:00 AM 37.4 ° F - 35.6 ° F 93% 29.98 pul 6.2 mi Sin viento Sin viento - N/A   Muy nublado
8:00 AM 41.0 ° F - 35.6 ° F 81% 29.98 pul 6.2 mi Sin viento Sin viento - N/A   Muy nublado
9:00 AM 42 ° F - 37 ° F 77% 29.95 pul 19 mi Oeste 3.5 mph - -   Muy nublado
9:00 AM 41.0 ° F 39.0 ° F 37.4 ° F 87% 29.98 pul 6.2 mi Oeste 3.5 mph - N/A   Muy nublado
10:00 AM 42.8 ° F - 37.4 ° F 81% 29.98 pul 6.2 mi OSO 1.2 mph - N/A   Muy nublado
11:00 AM 44.6 ° F - 39.2 ° F 81% 29.98 pul 6.2 mi Sin viento Sin viento - N/A   Muy nublado
12:00 PM 45 ° F - 42 ° F 85% 29.94 pul 2 mi ESE 1.2 mph - - Lluvia Llovizna débil
12:00 PM 44.6 ° F - 42.8 ° F 93% 29.98 pul 2.5 mi ESE 1.2 mph - N/A   Llovizna débil
12:10 PM 44.6 ° F - 42.8 ° F 93% 29.98 pul 1.2 mi SE 1.2 mph - N/A Lluvia Lluvia débil
1:00 PM 46.4 ° F - 44.6 ° F 93% 29.95 pul 5.0 mi Sin viento Sin viento - N/A   Llovizna débil
1:25 PM 44.6 ° F - 44.6 ° F 100% 29.95 pul 1.2 mi Sin viento Sin viento - N/A   Llovizna
2:00 PM 46.4 ° F - 44.6 ° F 93% 29.95 pul 1.2 mi Sin viento Sin viento - N/A   Llovizna
3:00 PM 46 ° F - 44 ° F 92% 29.90 pul 2 mi Sin viento Sin viento - - Lluvia Lluvia débil
3:00 PM 46.4 ° F - 44.6 ° F 93% 29.92 pul 1.9 mi Sin viento Sin viento - N/A Lluvia Lluvia débil
4:00 PM 46.4 ° F 44.3 ° F 44.6 ° F 93% 29.92 pul 0.9 mi NE 4.6 mph - N/A Lluvia Lluvia
5:00 PM 46.4 ° F 41.9 ° F 44.6 ° F 93% 29.92 pul 1.2 mi ENE 9.2 mph - N/A Lluvia Lluvia
6:00 PM 46 ° F - 45 ° F 95% 29.90 pul 3 mi NE 4.6 mph - - Lluvia Lluvia débil
6:00 PM 46.4 ° F 44.3 ° F 44.6 ° F 93% 29.92 pul 3.1 mi NE 4.6 mph - N/A Lluvia Lluvia
7:00 PM 46.4 ° F - 44.6 ° F 93% 29.95 pul 4.3 mi Sin viento Sin viento - N/A Lluvia Lluvia débil
7:18 PM 46.4 ° F - 44.6 ° F 93% 29.92 pul 2.5 mi Sin viento Sin viento - N/A Lluvia Lluvia
8:00 PM 46.4 ° F - 44.6 ° F 93% 29.95 pul 1.2 mi Sin viento Sin viento - N/A Lluvia Lluvia
9:00 PM 46 ° F - 45 ° F 93% 29.91 pul 4 mi Sin viento Sin viento - - Lluvia Lluvia débil
9:00 PM 46.4 ° F - 44.6 ° F 93% 29.95 pul 3.7 mi Sin viento Sin viento - N/A Lluvia Lluvia débil
10:00 PM 46.4 ° F - 44.6 ° F 93% 29.95 pul 3.1 mi Sin viento Sin viento - N/A Lluvia Lluvia débil
11:00 PM 46.4 ° F 44.3 ° F 46.4 ° F 100% 29.95 pul 3.1 mi Variable 4.6 mph - N/A Lluvia Lluvia débil